EW7772 Weather Reports


time (UTC)temp
F
wind
direction
speed
knots
gust
knots
rain 1hr
in
rain 24hr
in
rain mn
in
humidity
%
barometer
mb
20260903230017 62 309 0.0 0.0 0.00 0.00 0.00 76 1021.3
20260903224517 62 309 0.0 0.0 0.00 0.00 0.00 76 1021.3
20260903223015 62 309 0.0 0.0 0.00 0.00 0.00 77 1021.2
20260903221514 63 309 0.0 0.0 0.00 0.00 0.00 76 1021.3
20260903220010 64 309 0.0 0.0 0.00 0.00 0.00 74 1021.3
20260903214510 64 309 0.0 0.0 0.00 0.00 0.00 74 1021.3
20260903213009 64 309 0.0 0.0 0.00 0.00 0.00 74 1021.2
20260903211509 65 309 0.0 0.0 0.00 0.00 0.00 73 1021.5
20260903210009 65 309 0.0 0.0 0.00 0.00 0.00 72 1021.2
20260903204508 66 309 0.0 0.0 0.00 0.00 0.00 71 1021.2
20260903203008 66 309 0.0 0.0 0.00 0.00 0.00 69 1021.2
20260903201509 67 309 0.0 0.0 0.00 0.00 0.00 69 1021.0
20260903200007 67 309 0.0 0.0 0.00 0.00 0.00 68 1021.3
20260903194506 67 309 0.0 0.0 0.00 0.00 0.00 67 1021.4
20260903193011 67 309 0.0 0.0 0.00 0.00 0.00 66 1021.4
20260903191517 67 309 0.0 0.0 0.00 0.00 0.00 66 1021.1
20260903190005 68 309 0.0 0.0 0.00 0.00 0.00 64 1021.1
20260903184505 69 309 0.0 0.0 0.00 0.00 0.00 62 1020.8
20260903183004 69 309 0.0 0.0 0.00 0.00 0.00 60 1020.6
20260903181504 71 309 0.0 0.0 0.00 0.00 0.00 58 1020.5
20260903180003 72 309 0.0 0.0 0.00 0.00 0.00 56 1020.3
20260903174503 73 309 0.0 0.0 0.00 0.00 0.00 52 1020.5
20260903173003 75 309 0.0 0.0 0.00 0.00 0.00 50 1020.4
20260903171502 75 309 0.0 2.6 0.00 0.00 0.00 50 1020.2
20260903170001 76 294 0.0 1.7 0.00 0.00 0.00 47 1020.3
20260903164502 76 318 0.0 3.5 0.00 0.00 0.00 47 1020.2
20260903163002 77 302 0.9 3.5 0.00 0.00 0.00 45 1020.2
20260903161601 77 293 0.0 5.2 0.00 0.00 0.00 45 1020.1
20260903160100 78 260 0.0 4.3 0.00 0.00 0.00 45 1020.1
20260903154559 78 315 0.0 1.7 0.00 0.00 0.00 44 1020.2
20260903153107 79 298 0.0 3.5 0.00 0.00 0.00 44 1020.3
20260903151609 79 311 1.7 5.2 0.00 0.00 0.00 42 1020.3
20260903150104 78 300 0.0 3.5 0.00 0.00 0.00 44 1020.6
20260903144557 79 282 0.9 6.1 0.00 0.00 0.00 42 1020.4
20260903143055 79 285 0.9 5.2 0.00 0.00 0.00 43 1020.3
20260903141553 78 288 1.7 7.0 0.00 0.00 0.00 43 1020.3
20260903140104 78 220 0.9 5.2 0.00 0.00 0.00 44 1020.4
20260903134549 78 265 0.0 5.2 0.00 0.00 0.00 45 1020.5
20260903133047 77 231 0.0 2.6 0.00 0.00 0.00 45 1020.8
20260903131546 77 291 0.9 3.5 0.00 0.00 0.00 44 1020.9
20260903130047 77 267 0.0 2.6 0.00 0.00 0.00 47 1020.8
20260903124539 75 288 0.0 0.9 0.00 0.00 0.00 49 1021.1
20260903123038 75 288 0.0 0.9 0.00 0.00 0.00 52 1021.3
20260903121539 75 273 0.0 1.7 0.00 0.00 0.00 51 1021.2
20260903120046 75 273 0.0 3.5 0.00 0.00 0.00 50 1021.2
20260903114537 75 282 0.0 2.6 0.00 0.00 0.00 50 1021.3
20260903113035 75 267 0.0 1.7 0.00 0.00 0.00 49 1021.5
20260903111534 75 315 0.0 3.5 0.00 0.00 0.00 48 1021.7
20260903110032 74 277 0.0 5.2 0.00 0.00 0.00 48 1021.6
20260903104533 74 198 0.9 5.2 0.00 0.00 0.00 50 1022.0
20260903103032 75 292 0.0 2.6 0.00 0.00 0.00 52 1022.0
20260903101542 75 259 0.0 4.3 0.00 0.00 0.00 51 1022.1
20260903100033 74 255 0.0 3.5 0.00 0.00 0.00 51 1022.4
20260903094526 73 303 0.0 2.6 0.00 0.00 0.00 50 1022.0
20260903093025 72 295 0.0 4.3 0.00 0.00 0.00 53 1022.2
20260903091521 71 301 0.0 4.3 0.00 0.00 0.00 53 1022.6
20260903090017 70 317 0.0 5.2 0.00 0.00 0.00 56 1022.5
20260903084526 69 274 0.0 3.5 0.00 0.00 0.00 62 1022.2
20260903083019 67 232 0.0 2.6 0.00 0.00 0.00 69 1022.4
20260903081507 66 300 0.0 2.6 0.00 0.00 0.00 70 1022.6
20260903080006 64 286 0.0 2.6 0.00 0.00 0.00 74 1022.6
20260903074605 63 294 0.0 0.0 0.00 0.00 0.00 76 1022.7
20260903073057 61 294 0.0 0.9 0.00 0.00 0.00 79 1022.7
20260903071555 60 294 0.0 0.0 0.00 0.00 0.00 81 1022.8
20260903070054 59 294 0.0 0.9 0.00 0.00 0.00 83 1022.7
20260903064602 58 294 0.0 0.9 0.00 0.00 0.00 86 1022.4
20260903063054 57 294 0.0 0.0 0.00 0.00 0.00 88 1022.7
20260903061554 55 294 0.0 0.0 0.00 0.00 0.00 89 1022.6
20260903060055 54 294 0.0 0.0 0.00 0.00 0.00 91 1022.9
20260903054552 53 294 0.0 0.0 0.00 0.00 0.00 92 1022.8
20260903053103 53 294 0.0 0.0 0.00 0.00 0.00 92 1022.6
20260903051550 53 294 0.0 0.0 0.00 0.00 0.00 92 1022.3
20260903050046 53 294 0.0 0.0 0.00 0.00 0.00 91 1022.1
20260903044546 53 294 0.0 0.0 0.00 0.00 0.00 91 1021.9
20260903043044 53 294 0.0 0.0 0.00 0.00 0.00 91 1021.9
20260903041601 53 294 0.0 0.0 0.00 0.00 0.00 91 1022.0
20260903040057 53 294 0.0 0.0 0.00 0.00 0.00 91 1022.1
20260903034542 53 294 0.0 0.0 0.00 0.00 0.00 91 1022.2
20260903033044 53 294 0.0 0.0 0.00 0.00 0.00 91 1022.3
20260903031539 54 294 0.0 0.0 0.00 0.00 0.00 91 1022.1
20260903030042 54 294 0.0 0.0 0.00 0.00 0.00 90 1022.1
20260903024537 54 294 0.0 0.0 0.00 0.00 0.00 90 1022.1
20260903023036 54 294 0.0 0.0 0.00 0.00 0.00 90 1022.2
20260903021538 55 294 0.0 0.0 0.00 0.00 0.00 90 1022.1
20260903020033 55 294 0.0 0.0 0.00 0.00 0.00 90 1022.1
20260903014531 55 294 0.0 0.0 0.00 0.00 0.00 89 1022.1
20260903013029 56 294 0.0 0.0 0.00 0.00 0.00 88 1022.1
20260903011528 56 294 0.0 0.0 0.00 0.00 0.00 88 1022.2
20260903010026 57 294 0.0 0.0 0.00 0.00 0.00 88 1022.1
20260903004524 57 294 0.0 0.0 0.00 0.00 0.00 87 1021.9
20260903003022 57 294 0.0 0.0 0.00 0.00 0.00 87 1021.9
20260903001525 58 294 0.0 0.0 0.00 0.00 0.00 86 1021.8
20260903000023 58 294 0.0 0.0 0.00 0.00 0.00 85 1021.8
20260902234516 59 294 0.0 0.0 0.00 0.00 0.00 85 1021.9
20260902233015 59 294 0.0 0.0 0.00 0.00 0.00 84 1021.8
20260902231522 60 294 0.0 0.0 0.00 0.00 0.00 84 1021.8